[[{"header":{"parameterUnit":"m.s-1","parameterCategory":2,"la1":30.2991,"la2":30.254,"lo1":-89.0895,"lo2":-89.0444,"dy":0.0017,"dx":0.0017,"nx":28,"ny":28,"refTime":"2025-08-25T03:00:00:Z","depth":"0","parameterNumber":2,"parameterNumberName":"U-component_of_CURRENTS"},"data":[0,0,0,0,0,0,0,0,0,0,0,0,0,0,0,0,0,0,0,0,0,0,0,0,0,0,0,0,0,0,0,0,0,0,0,0,0,0,0,0,0,0,0,0,0,0,0,0,0,0,0,0,0,0,0,0,0,0,0.1424,0.1423,0,0.1393,0.1393,0.1392,0.1389,0.1389,0.1389,0.139,0.1393,0.1392,0.1392,0,0,0,0,0,0,0,0,0,0,0,0,0,0.1432,0.1432,0.1424,0.1423,0.1423,0.1393,0.1393,0.1392,0.1388,0.1389,0.139,0.139,0.1393,0.1392,0.1392,0,0,0,0,0,0,0,0,0,0,0,0,0,0.1416,0.1432,0.1424,0.1419,0.1419,0.1393,0.1393,0.1392,0.1388,0.1389,0.139,0.139,0.1393,0.1392,0.1392,0.1374,0,0,0.139,0.139,0,0,0,0,0,0,0,0,0.1417,0.1415,0.142,0.142,0.1419,0.1397,0.1396,0.1388,0.1388,0.1398,0.139,0.1391,0.1398,0.1397,0.1386,0.1374,0.1374,0.139,0.139,0.1389,0.1389,0,0,0,0,0,0,0,0.1418,0.1416,0.141,0.142,0.1419,0.1403,0.1401,0.1394,0.1393,0.1397,0.1397,0.1397,0.1398,0.1387,0.1387,0.1374,0.139,0.1389,0.1389,0.1389,0.1494,0.1497,0,0,0,0,0,0,0.1427,0.1417,0.1411,0.1409,0.1422,0.1402,0.1401,0.1402,0.1393,0.1392,0.1396,0.1397,0.1387,0.1387,0.1387,0.1454,0.1389,0.1389,0.1389,0.1491,0.1495,0.1498,0,0,0,0,0,0,0.1427,0.1427,0.1412,0.1414,0.1411,0.1402,0.1403,0.1401,0.1398,0.1392,0.1392,0.1396,0.1388,0.1388,0.1409,0.1451,0.1389,0.1388,0.1487,0.1492,0.1497,0.1531,0,0,0,0,0,0,0.1428,0.1427,0.143,0.1415,0.1411,0.1408,0.1402,0.14,0.1397,0.1397,0.1392,0.1392,0.1389,0.141,0.1408,0.1449,0.1388,0.1483,0.149,0.1495,0.1526,0.1536,0.1545,0,0,0,0,0,0.1428,0.1427,0.143,0.1429,0.1416,0.1409,0.1406,0.14,0.1396,0.1398,0.1409,0.1393,0.1448,0.1411,0.1408,0.145,0.1481,0.1488,0.1495,0.1522,0.1534,0.1545,0,0,0,0,0,0,0.1431,0.1427,0.1429,0.1428,0.1426,0.1409,0.1405,0.1402,0.1407,0.1409,0.1406,0.1408,0.1454,0.145,0.141,0.1507,0.1472,0.1479,0.1494,0.1505,0.1515,0.1516,0.1387,0,0,0,0,0,0.1434,0.1434,0.143,0.143,0.1428,0.1418,0.1413,0.141,0.1411,0.1413,0.1414,0.1437,0.1479,0.1488,0.1513,0.1537,0.1559,0.1577,0.1586,0.1594,0.16,0.1676,0.1692,0.1522,0.1521,0.1521,0,0,0.1434,0.1433,0.1432,0.1431,0.1424,0.1434,0.1416,0.141,0.1431,0.1413,0.1439,0.1461,0.1497,0.1546,0.1567,0.1544,0.1658,0.1603,0.1609,0.161,0.1685,0.1701,0.1715,0.1526,0.1525,0.1525,0,0,0.1431,0.1434,0.1433,0.1436,0.1433,0.1438,0.1441,0.1432,0.1443,0.1469,0.1487,0.1531,0.1563,0.1605,0.1633,0.1709,0.171,0.1729,0.1764,0.1838,0.1852,0.1864,0.1918,0.1935,0.1728,0.1728,0.1728,0,0.1432,0.1434,0.1431,0.1435,0.1444,0.1446,0.1456,0.1471,0.1476,0.1496,0.1491,0.1586,0.1601,0.1691,0.1726,0.1728,0.1763,0.1706,0.1847,0.186,0.1872,0.1924,0.1942,0.173,0.173,0.173,0.173,0,0.1429,0.1437,0.1436,0.1454,0.1467,0.1471,0.1499,0.1517,0.1536,0.1557,0.1635,0.1667,0.1727,0.1754,0.1759,0.1865,0.1861,0.185,0.1806,0.189,0.1941,0.1959,0.1734,0.1733,0.1732,0.1732,0,0,0.1415,0.1431,0.1432,0.1445,0.1476,0.1484,0.1536,0.1581,0.1619,0.1656,0.1719,0.1802,0.1814,0.185,0.1872,0.1932,0.2043,0.1925,0.1928,0.1957,0.2202,0.2146,0.216,0.2055,0.2058,0.2061,0.2203,0,0.1413,0.1422,0.1441,0.1473,0.1483,0.1519,0.1569,0.1616,0.1663,0.1724,0.1791,0.186,0.1857,0.1891,0.1956,0.2025,0.2092,0.2004,0.2134,0.2138,0.2061,0.218,0.2122,0.2239,0.222,0.2223,0.2226,0,0.1406,0.1415,0.1432,0.1482,0.1491,0.152,0.1598,0.1643,0.1739,0.1777,0.186,0.1909,0.202,0.1998,0.2162,0.2107,0.2163,0.2207,0.2214,0.216,0.2117,0.2155,0.2272,0.222,0.2253,0.2251,0.2249,0,0.1387,0.1416,0.1431,0.1444,0.1499,0.1525,0.1567,0.1652,0.1701,0.1815,0.1867,0.1992,0.206,0.2165,0.2243,0.2224,0.2405,0.239,0.2396,0.2391,0.2366,0.2353,0.2428,0.2514,0.2514,0.2514,0.2513,0,0.138,0.1394,0.1417,0.1424,0.146,0.1506,0.1565,0.1623,0.172,0.1789,0.1889,0.1965,0.2107,0.2213,0.2285,0.2392,0.2445,0.2431,0.2439,0.2377,0.2364,0.2333,0.2298,0.2519,0.2518,0.2517,0.2516,0,0.1363,0.1373,0.1393,0.1434,0.1447,0.1474,0.1551,0.1599,0.169,0.1788,0.1832,0.1977,0.212,0.2239,0.2405,0.2436,0.2484,0.2558,0.2459,0.2453,0.2401,0.2371,0.236,0.2289,0.2624,0.2624,0.2623,0,0.1359,0.1359,0.1387,0.1396,0.1412,0.1454,0.1486,0.1574,0.1628,0.1785,0.1832,0.1993,0.2099,0.2312,0.2411,0.255,0.2474,0.2549,0.2503,0.2415,0.2389,0.227,0.2202,0.2496,0.2495,0.2494,0.2493,0,0.1355,0.1356,0.1372,0.1381,0.1402,0.1432,0.1482,0.1517,0.1628,0.1715,0.1829,0.1926,0.2129,0.2249,0.2405,0.2476,0.2426,0.253,0.249,0.2344,0.2174,0.2101,0.2366,0.2484,0.2485,0.2486,0.2486,0.2486,0.1352,0.1355,0.1362,0.1375,0.1393,0.1404,0.1416,0.148,0.1552,0.1668,0.1774,0.1904,0.2098,0.2322,0.2358,0.2397,0.2365,0.2387,0.2377,0.2278,0.2146,0.2368,0.2448,0.2449,0.2449,0.245,0.245,0,0.1331,0.1336,0.1355,0.1358,0.1361,0.1378,0.1411,0.1419,0.1472,0.1604,0.1704,0.1907,0.2049,0.2188,0.2315,0.2272,0.2164,0.2225,0.2073,0.2028,0.2301,0.223,0.2203,0.2203,0.2203,0.2203,0.2203,0.2203,0.132,0.1315,0.1323,0.1318,0.1322,0.1304,0.1306,0.1327,0.14,0.1512,0.1626,0.175,0.1993,0.2197,0.2218,0.217,0.2002,0.1924,0.189,0.2118,0.2132,0.2145,0.2071,0.2012,0.2011,0.1542,0.1539,0.1536]},{"header":{"parameterUnit":"m.s-1","parameterCategory":2,"la1":30.2991,"la2":30.254,"lo1":-89.0895,"lo2":-89.0444,"dy":0.0017,"dx":0.0017,"nx":28,"ny":28,"refTime":"2025-08-25T03:00:00:Z","depth":"0","parameterNumber":3,"parameterNumberName":"V-component_of_CURRENTS"},"data":[0,0,0,0,0,0,0,0,0,0,0,0,0,0,0,0,0,0,0,0,0,0,0,0,0,0,0,0,0,0,0,0,0,0,0,0,0,0,0,0,0,0,0,0,0,0,0,0,0,0,0,0,0,0,0,0,0,0,0.0096,0.0095,0,0.0044,0.0044,0.0043,0.0014,0.0014,0.0014,0.0014,-0.0002,-0.0002,-0.0002,0,0,0,0,0,0,0,0,0,0,0,0,0,0.015,0.0149,0.0096,0.0095,0.0095,0.0044,0.0044,0.0043,0.0014,0.0014,0.0014,0.0013,-0.0002,-0.0002,-0.0002,0,0,0,0,0,0,0,0,0,0,0,0,0,0.0117,0.0149,0.0096,0.0073,0.007,0.0045,0.0044,0.0043,0.0014,0.0014,0.0014,0.0013,-0.0002,-0.0002,-0.0002,0.0003,0,0,-0.0003,-0.0003,0,0,0,0,0,0,0,0,0.0119,0.0115,0.0077,0.0074,0.0071,0.0034,0.0057,0.0031,0.0014,0.0037,0.0014,0.0013,0.0013,0.0011,0.0004,0.0003,0.0002,-0.0003,-0.0003,-0.0003,-0.0003,0,0,0,0,0,0,0,0.0121,0.0117,0.0077,0.0076,0.0073,0.0058,0.0053,0.0052,0.003,0.0035,0.0033,0.0024,0.0012,0.0004,0.0004,0.0002,-0.0003,-0.0003,-0.0003,-0.0004,0.0113,0.0116,0,0,0,0,0,0,0.0126,0.0119,0.0079,0.0076,0.0093,0.0057,0.0052,0.0048,0.0029,0.0025,0.0025,0.0023,0.0005,0.0004,0.0003,0.0076,-0.0003,-0.0004,-0.0004,0.011,0.0113,0.0117,0,0,0,0,0,0,0.0127,0.0123,0.0081,0.0095,0.0088,0.0057,0.0052,0.0047,0.004,0.002,0.0017,0.0023,0.0005,0.0003,0.0026,0.0072,-0.0004,-0.0004,0.0106,0.0111,0.0115,0.0178,0,0,0,0,0,0,0.0129,0.0124,0.0124,0.0095,0.0088,0.0076,0.0052,0.0046,0.0034,0.0032,0.0018,0.0015,0.0004,0.0026,0.0025,0.007,-0.0004,0.0102,0.0108,0.0114,0.0172,0.0184,0.0195,0,0,0,0,0,0.0131,0.0134,0.0125,0.012,0.0089,0.0076,0.0072,0.0048,0.0035,0.0039,0.0042,0.0016,0.0066,0.0028,0.0026,0.0072,0.0099,0.0106,0.0113,0.0166,0.0182,0.0195,0,0,0,0,0,0,0.016,0.0131,0.012,0.0114,0.01,0.0071,0.0068,0.0052,0.0054,0.0055,0.0038,0.0037,0.0081,0.0074,0.0033,0.0132,0.0086,0.0093,0.0127,0.0142,0.0153,0.0153,-0.0004,0,0,0,0,0,0.0166,0.0161,0.0134,0.0132,0.0124,0.0097,0.0089,0.0075,0.0069,0.0067,0.0062,0.0078,0.0111,0.012,0.0139,0.0175,0.0148,0.0215,0.0226,0.0236,0.0241,0.0235,0.0245,0.0141,0.0141,0.0141,0,0,0.0177,0.016,0.0157,0.0138,0.0122,0.0133,0.0092,0.0084,0.0113,0.0068,0.0108,0.0109,0.0131,0.0184,0.0204,0.018,0.0256,0.0245,0.0253,0.0252,0.0243,0.0252,0.0261,0.0146,0.0145,0.0144,0,0,0.0199,0.0181,0.0185,0.0178,0.0159,0.0154,0.0155,0.0134,0.0147,0.0179,0.0174,0.0199,0.0233,0.026,0.028,0.0369,0.0317,0.0387,0.044,0.0434,0.0441,0.0447,0.0428,0.0432,0.0392,0.0393,0.0393,0,0.0215,0.0214,0.0186,0.0192,0.0197,0.0171,0.019,0.0207,0.0204,0.0227,0.0208,0.0272,0.0277,0.0354,0.0392,0.0392,0.037,0.0375,0.0444,0.045,0.0454,0.0433,0.0436,0.0397,0.0396,0.0396,0.0395,0,0.0239,0.0242,0.0245,0.0253,0.0261,0.0269,0.0286,0.031,0.032,0.033,0.0391,0.0395,0.0429,0.0451,0.0447,0.0508,0.0475,0.0453,0.0394,0.0468,0.0442,0.0444,0.0402,0.0401,0.04,0.0399,0,0,0.0266,0.0263,0.0265,0.028,0.0292,0.0303,0.037,0.0416,0.046,0.0473,0.0527,0.0583,0.0558,0.0582,0.0576,0.0576,0.0592,0.0533,0.0531,0.0489,0.0566,0.0515,0.0511,0.0569,0.057,0.0571,0.0533,0,0.0295,0.0316,0.0317,0.0365,0.038,0.0396,0.0462,0.0506,0.0541,0.0589,0.0607,0.0653,0.0621,0.0632,0.0632,0.0608,0.06,0.0604,0.0523,0.0521,0.0446,0.0513,0.0463,0.0422,0.0534,0.0534,0.0534,0,0.0321,0.0332,0.037,0.0419,0.043,0.0468,0.0555,0.0607,0.0678,0.0703,0.0735,0.0735,0.0768,0.0715,0.0694,0.0693,0.0639,0.0604,0.0601,0.053,0.0474,0.0371,0.0421,0.0286,0.0537,0.0536,0.0536,0,0.0344,0.0377,0.041,0.0422,0.0474,0.0517,0.0561,0.0636,0.07,0.0764,0.0804,0.082,0.0832,0.0782,0.0719,0.0704,0.067,0.0636,0.0537,0.0532,0.0463,0.0451,0.0351,0.0607,0.0607,0.0607,0.0607,0,0.0371,0.0401,0.0421,0.0437,0.0508,0.0537,0.0626,0.0677,0.0756,0.0837,0.0851,0.0905,0.0846,0.0824,0.0747,0.0654,0.0689,0.0557,0.0526,0.0486,0.0477,0.0334,0.0274,0.0606,0.0606,0.0606,0.0606,0,0.0393,0.0398,0.044,0.049,0.0514,0.0566,0.0664,0.0734,0.0797,0.0901,0.0927,0.0969,0.094,0.0867,0.0782,0.0689,0.0518,0.0555,0.0507,0.0471,0.0244,0.0191,0.0076,0.0017,0.0442,0.044,0.0439,0,0.0409,0.0423,0.0472,0.0507,0.0531,0.0607,0.0673,0.075,0.0828,0.0948,0.1004,0.1009,0.1031,0.0889,0.0716,0.0566,0.0466,0.0411,0.0376,0.0233,0.0152,0.012,0.0077,0.031,0.0308,0.0306,0.0305,0,0.0444,0.045,0.0485,0.0547,0.0609,0.0686,0.0778,0.0844,0.0949,0.1033,0.1129,0.1152,0.1016,0.0849,0.0631,0.0512,0.0299,0.0369,0.0238,0.006,0.0003,-0.007,0.0323,0.0289,0.0291,0.0292,0.0293,0.0293,0.0475,0.0506,0.0542,0.061,0.0673,0.0762,0.0837,0.0934,0.1049,0.1185,0.1197,0.1244,0.0983,0.0679,0.0498,0.012,0.0167,0.0007,-0.004,-0.0053,-0.0128,0.0226,0.0147,0.0147,0.0148,0.0148,0.0149,0,0.0513,0.055,0.0611,0.0687,0.0757,0.0786,0.0912,0.099,0.1115,0.1222,0.1294,0.1177,0.0847,0.0527,0.0031,-0.0231,-0.0312,-0.0367,-0.0428,-0.0447,-0.0127,-0.0152,-0.0321,-0.0321,-0.0321,-0.0321,-0.032,-0.032,0.0539,0.0596,0.0628,0.0746,0.0801,0.0904,0.0975,0.1079,0.1168,0.1273,0.1296,0.1302,0.1043,0.0171,-0.0423,-0.0565,-0.0734,-0.079,-0.0835,-0.0637,-0.0605,-0.0575,-0.0614,-0.0877,-0.0878,-0.1146,-0.1149,-0.1151]}],[{"header":{"parameterUnit":"m.s-1","parameterCategory":2,"la1":30.2991,"la2":30.254,"lo1":-89.0895,"lo2":-89.0444,"dy":0.0017,"dx":0.0017,"nx":28,"ny":28,"refTime":"2025-08-25T03:00:00:Z","depth":"2","parameterNumber":2,"parameterNumberName":"U-component_of_CURRENTS"},"data":[0,0,0,0,0,0,0,0,0,0,0,0,0,0,0,0,0,0,0,0,0,0,0,0,0,0,0,0,0,0,0,0,0,0,0,0,0,0,0,0,0,0,0,0,0,0,0,0,0,0,0,0,0,0,0,0,0,0,0.1359,0.1359,0,0.1336,0.1336,0.1335,0.1338,0.1338,0.1339,0.1339,0.1359,0.1359,0.1359,0,0,0,0,0,0,0,0,0,0,0,0,0,0.1358,0.1358,0.1359,0.1359,0.1359,0.1336,0.1336,0.1335,0.1337,0.1338,0.1339,0.1339,0.1359,0.1359,0.1359,0,0,0,0,0,0,0,0,0,0,0,0,0,0.1348,0.1358,0.1359,0.1359,0.1358,0.1336,0.1336,0.1335,0.1337,0.1338,0.1339,0.134,0.1359,0.1359,0.1359,0.1345,0,0,0.136,0.136,0,0,0,0,0,0,0,0,0.1348,0.1348,0.1359,0.1359,0.1358,0.1342,0.1343,0.1341,0.1337,0.1344,0.1339,0.134,0.1358,0.1358,0.1349,0.1346,0.1346,0.136,0.136,0.136,0.136,0,0,0,0,0,0,0,0.1349,0.1348,0.1349,0.1359,0.1358,0.1343,0.1343,0.1342,0.1346,0.1343,0.1344,0.1343,0.1358,0.1349,0.135,0.1347,0.136,0.136,0.136,0.136,0.1478,0.1481,0,0,0,0,0,0,0.1357,0.1349,0.1349,0.1348,0.1357,0.1343,0.1342,0.1345,0.1345,0.1346,0.1343,0.1344,0.1348,0.135,0.1351,0.1426,0.136,0.136,0.136,0.1475,0.1479,0.1482,0,0,0,0,0,0,0.1357,0.1357,0.135,0.1349,0.1347,0.1343,0.1345,0.1344,0.1345,0.1345,0.1347,0.1346,0.1349,0.135,0.1382,0.1424,0.136,0.136,0.1471,0.1476,0.148,0.1519,0,0,0,0,0,0,0.1357,0.1357,0.1363,0.135,0.1348,0.1351,0.1345,0.1343,0.1344,0.1345,0.1348,0.135,0.135,0.1382,0.1382,0.1423,0.136,0.1467,0.1473,0.1479,0.1514,0.1524,0.1533,0,0,0,0,0,0.1357,0.136,0.1363,0.1363,0.1356,0.1351,0.1349,0.1346,0.1344,0.1349,0.1366,0.1351,0.142,0.1383,0.1383,0.1425,0.1464,0.1472,0.1478,0.1509,0.1522,0.1533,0,0,0,0,0,0,0.1363,0.136,0.1364,0.1367,0.1367,0.1353,0.1352,0.135,0.1362,0.1366,0.1367,0.1371,0.1426,0.1422,0.1382,0.1485,0.1448,0.1456,0.1473,0.1484,0.1494,0.1489,0.136,0,0,0,0,0,0.1367,0.137,0.1367,0.1371,0.137,0.1362,0.136,0.1359,0.1366,0.137,0.1379,0.1407,0.1451,0.1463,0.1493,0.1523,0.1524,0.1562,0.1571,0.1579,0.1581,0.1622,0.1634,0.1505,0.1505,0.1504,0,0,0.137,0.137,0.1371,0.1373,0.1368,0.1382,0.1362,0.1362,0.139,0.1371,0.1413,0.1435,0.1471,0.1525,0.1549,0.1525,0.1622,0.1588,0.1594,0.1592,0.163,0.1642,0.1652,0.1509,0.1508,0.1508,0,0,0.1371,0.1377,0.1377,0.1382,0.1383,0.1392,0.1396,0.1393,0.141,0.1447,0.1464,0.1504,0.1551,0.1585,0.1611,0.1689,0.1677,0.1716,0.1748,0.1787,0.1797,0.1806,0.1829,0.1839,0.1714,0.1714,0.1714,0,0.1374,0.1378,0.1377,0.1383,0.1396,0.1402,0.1417,0.1439,0.1454,0.1475,0.1476,0.1569,0.1584,0.1664,0.1702,0.1707,0.1725,0.1691,0.1796,0.1804,0.1812,0.1834,0.1845,0.1717,0.1717,0.1716,0.1716,0,0.1376,0.1385,0.1386,0.1409,0.1428,0.1436,0.1472,0.15,0.1527,0.1548,0.1625,0.1653,0.1705,0.1733,0.174,0.1821,0.1815,0.1803,0.1752,0.1827,0.1846,0.1856,0.1721,0.172,0.1719,0.1718,0,0,0.1362,0.1382,0.1383,0.14,0.144,0.1454,0.1519,0.157,0.1609,0.1653,0.1707,0.1788,0.179,0.1822,0.184,0.1873,0.1942,0.1866,0.1867,0.1865,0.2028,0.191,0.191,0.195,0.1952,0.1953,0.2019,0,0.1362,0.1375,0.1397,0.1438,0.1452,0.1497,0.1557,0.1612,0.1663,0.1719,0.177,0.183,0.1833,0.1858,0.1899,0.1943,0.1972,0.1925,0.1977,0.1979,0.1845,0.1919,0.1812,0.1851,0.2028,0.203,0.2031,0,0.1354,0.1368,0.1392,0.1452,0.1463,0.15,0.159,0.1645,0.1734,0.177,0.1836,0.1873,0.1956,0.1931,0.2036,0.2011,0.2024,0.2042,0.2045,0.1924,0.188,0.1809,0.1863,0.2048,0.2047,0.2046,0.2045,0,0.1335,0.137,0.1392,0.1407,0.1476,0.1508,0.1561,0.165,0.1705,0.1797,0.1841,0.1935,0.198,0.2041,0.2074,0.2073,0.2159,0.2158,0.2061,0.2053,0.1964,0.1943,0.2211,0.221,0.221,0.221,0.221,0,0.1326,0.1344,0.1377,0.1388,0.1434,0.1491,0.1557,0.1619,0.1712,0.1778,0.1858,0.191,0.201,0.2065,0.2099,0.2106,0.218,0.2078,0.2066,0.1975,0.1955,0.2124,0.2114,0.2213,0.2212,0.2212,0.2211,0,0.1304,0.1319,0.1345,0.14,0.1419,0.1454,0.1548,0.1598,0.1687,0.1777,0.1811,0.1915,0.1986,0.2054,0.2133,0.2113,0.2141,0.2108,0.1979,0.195,0.201,0.2001,0.205,0.2046,0.2043,0.2041,0.2039,0,0.1302,0.1303,0.1342,0.1356,0.1377,0.1433,0.1475,0.1572,0.1624,0.1767,0.18,0.1891,0.1931,0.1992,0.1993,0.2023,0.2064,0.1892,0.1858,0.2012,0.1997,0.1992,0.1988,0.1776,0.1772,0.1769,0.1766,0,0.1298,0.1298,0.1319,0.1341,0.1369,0.1405,0.1466,0.1499,0.1618,0.1685,0.1751,0.1792,0.185,0.1814,0.1818,0.1817,0.1887,0.1819,0.2045,0.1805,0.1751,0.1736,0.1742,0.1736,0.1739,0.1742,0.1743,0.1744,0.1301,0.1301,0.1315,0.1336,0.1362,0.1367,0.1384,0.1438,0.1493,0.1567,0.1637,0.1657,0.1682,0.1633,0.1596,0.1577,0.1696,0.1646,0.1658,0.1674,0.1602,0.1542,0.1477,0.1478,0.1479,0.148,0.1481,0,0.1281,0.1284,0.1314,0.1324,0.133,0.1353,0.1377,0.1369,0.1387,0.145,0.1483,0.1387,0.1369,0.1407,0.1343,0.1325,0.1345,0.1274,0.1313,0.1343,0.137,0.1284,0.1074,0.1073,0.1071,0.107,0,0,0.1273,0.1266,0.1275,0.1282,0.1297,0.1279,0.1272,0.1245,0.1264,0.1225,0.1228,0.1315,0.1378,0.121,0.1191,0.1129,0.1229,0.109,0.1424,0.1503,0.1528,0.1597,0.1499,0,0,0,0,0]},{"header":{"parameterUnit":"m.s-1","parameterCategory":2,"la1":30.2991,"la2":30.254,"lo1":-89.0895,"lo2":-89.0444,"dy":0.0017,"dx":0.0017,"nx":28,"ny":28,"refTime":"2025-08-25T03:00:00:Z","depth":"2","parameterNumber":3,"parameterNumberName":"V-component_of_CURRENTS"},"data":[0,0,0,0,0,0,0,0,0,0,0,0,0,0,0,0,0,0,0,0,0,0,0,0,0,0,0,0,0,0,0,0,0,0,0,0,0,0,0,0,0,0,0,0,0,0,0,0,0,0,0,0,0,0,0,0,0,0,-0.0027,-0.0027,0,-0.0082,-0.0082,-0.0083,-0.0106,-0.0106,-0.0106,-0.0106,-0.015,-0.0151,-0.0152,0,0,0,0,0,0,0,0,0,0,0,0,0,0.002,0.0019,-0.0027,-0.0028,-0.0028,-0.0081,-0.0082,-0.0083,-0.0106,-0.0106,-0.0106,-0.0106,-0.0149,-0.0151,-0.0152,0,0,0,0,0,0,0,0,0,0,0,0,0,-0.0014,0.0019,-0.0027,-0.0047,-0.0049,-0.0081,-0.0082,-0.0083,-0.0106,-0.0106,-0.0106,-0.0106,-0.0149,-0.015,-0.0152,-0.0165,0,0,-0.0158,-0.0159,0,0,0,0,0,0,0,0,-0.0012,-0.0015,-0.0043,-0.0045,-0.0048,-0.0087,-0.0082,-0.011,-0.0107,-0.0084,-0.0106,-0.0106,-0.0128,-0.0132,-0.0142,-0.0167,-0.0169,-0.0158,-0.0159,-0.016,-0.016,0,0,0,0,0,0,0,-0.0009,-0.0013,-0.0048,-0.0044,-0.0047,-0.0066,-0.007,-0.0087,-0.0105,-0.0086,-0.0088,-0.0095,-0.0129,-0.014,-0.0143,-0.0169,-0.0158,-0.0159,-0.0161,-0.0161,-0.013,-0.0128,0,0,0,0,0,0,-0.0002,-0.0011,-0.0046,-0.005,-0.003,-0.0067,-0.0071,-0.0075,-0.0106,-0.011,-0.0095,-0.0096,-0.0137,-0.0141,-0.0144,-0.0098,-0.016,-0.0161,-0.0162,-0.0132,-0.013,-0.0128,0,0,0,0,0,0,-0.0,-0.0004,-0.0044,-0.0032,-0.0039,-0.0067,-0.0071,-0.0076,-0.0085,-0.0112,-0.0117,-0.0099,-0.0137,-0.0142,-0.0141,-0.0102,-0.0162,-0.0164,-0.0134,-0.0131,-0.0129,-0.0045,0,0,0,0,0,0,0.0001,-0.0003,-0.0002,-0.0031,-0.0039,-0.0057,-0.0071,-0.0077,-0.0089,-0.0091,-0.0117,-0.0121,-0.0137,-0.0138,-0.0143,-0.0105,-0.0165,-0.0137,-0.0133,-0.013,-0.005,-0.0039,-0.003,0,0,0,0,0,0.0003,0.0004,-0.0002,-0.0006,-0.0037,-0.0057,-0.0062,-0.0082,-0.0089,-0.009,-0.0097,-0.012,-0.0118,-0.0139,-0.0145,-0.0107,-0.0138,-0.0134,-0.013,-0.0054,-0.0041,-0.003,0,0,0,0,0,0,0.0026,0.0001,-0.0006,-0.0012,-0.003,-0.006,-0.0066,-0.008,-0.0088,-0.0087,-0.011,-0.0114,-0.0092,-0.0114,-0.0136,-0.0084,-0.0127,-0.0123,-0.0067,-0.0055,-0.0046,-0.0044,-0.0167,0,0,0,0,0,0.0031,0.0027,0.0001,-0.0002,-0.0011,-0.0038,-0.0048,-0.006,-0.0074,-0.0079,-0.0092,-0.0094,-0.008,-0.0081,-0.0081,-0.0068,-0.0114,-0.0042,-0.0032,-0.0023,-0.0023,-0.0086,-0.0084,-0.0114,-0.0114,-0.0114,0,0,0.0039,0.0025,0.0023,0.0002,-0.0014,-0.0009,-0.0044,-0.0056,-0.0031,-0.0081,-0.0054,-0.0067,-0.0068,-0.0039,-0.0031,-0.0054,-0.0029,-0.0018,-0.0011,-0.0016,-0.0082,-0.008,-0.0077,-0.0111,-0.0111,-0.0112,0,0,0.0053,0.004,0.0041,0.003,0.0009,0.0007,0.0006,-0.0018,-0.0007,0.0009,-0.0003,-0.0008,0.001,0.0008,0.0015,0.0071,0.0025,0.0096,0.0143,0.0083,0.0083,0.0084,0.0062,0.0059,0.0099,0.01,0.01,0,0.0064,0.0062,0.0038,0.0037,0.004,0.0021,0.0033,0.0047,0.0033,0.004,0.0034,0.004,0.0031,0.0061,0.0103,0.009,0.0067,0.0098,0.0092,0.0091,0.009,0.0067,0.0063,0.0104,0.0104,0.0103,0.0103,0,0.0077,0.0077,0.0076,0.0083,0.0087,0.0089,0.0106,0.0123,0.0135,0.0132,0.0152,0.0131,0.0129,0.0143,0.0151,0.0161,0.0153,0.0109,0.0055,0.0097,0.0072,0.0066,0.0111,0.0109,0.0108,0.0107,0,0,0.0097,0.0088,0.0089,0.0102,0.011,0.0119,0.0174,0.0202,0.0232,0.0225,0.0245,0.0268,0.0231,0.0237,0.0227,0.0191,0.018,0.017,0.0165,0.0139,0.0085,0.0029,0.0017,0.0138,0.0137,0.0136,0.0082,0,0.0116,0.0127,0.0125,0.0165,0.0177,0.019,0.0246,0.0272,0.0292,0.031,0.0284,0.0299,0.0281,0.0284,0.0248,0.0204,0.0165,0.0201,0.0057,0.0053,-0.0013,0.0007,0.0034,-0.0017,0.0076,0.0075,0.0074,0,0.0129,0.0139,0.0167,0.0209,0.0218,0.0251,0.032,0.0365,0.039,0.0398,0.0383,0.0362,0.035,0.0306,0.0222,0.0255,0.0184,0.0128,0.0123,0.0031,-0.0016,-0.0049,-0.0032,0.0063,0.0064,0.0065,0.0066,0,0.0153,0.0175,0.0206,0.0213,0.0257,0.0292,0.0336,0.0378,0.0429,0.0443,0.0458,0.0416,0.0403,0.0309,0.0208,0.0228,0.0081,0.0076,-0.0051,-0.0054,-0.0082,-0.0087,-0.0025,-0.0025,-0.0025,-0.0025,-0.0025,0,0.0172,0.0196,0.0217,0.0231,0.0295,0.0319,0.0394,0.0428,0.0476,0.0526,0.05,0.0494,0.0401,0.0311,0.0215,0.0064,0.0072,-0.0041,-0.0083,-0.0047,-0.0048,-0.0029,-0.0028,-0.0027,-0.0027,-0.0026,-0.0026,0,0.0187,0.0192,0.023,0.0276,0.03,0.0349,0.0442,0.0496,0.0536,0.0599,0.061,0.0561,0.0456,0.0332,0.0166,0.0068,-0.0079,-0.0154,-0.0086,-0.0119,-0.0156,-0.015,-0.0247,-0.025,-0.0252,-0.0254,-0.0255,0,0.0198,0.021,0.0261,0.0294,0.0316,0.0391,0.0452,0.052,0.0569,0.0623,0.0638,0.0566,0.05,0.0238,0.0047,-0.014,-0.0159,-0.0255,-0.0231,-0.0154,-0.0184,-0.0175,-0.0166,-0.0209,-0.021,-0.0211,-0.0211,0,0.0221,0.0228,0.0259,0.0325,0.0384,0.0454,0.0531,0.0579,0.0663,0.0696,0.0682,0.0634,0.0424,0.0217,-0.0044,-0.0172,-0.0209,-0.0279,-0.0246,-0.0169,-0.0127,-0.0153,-0.0145,-0.0219,-0.0219,-0.0218,-0.0218,-0.0217,0.0245,0.0266,0.0305,0.037,0.0433,0.0497,0.0566,0.0622,0.0685,0.074,0.0682,0.0626,0.0434,0.0099,-0.0112,-0.0299,-0.0288,-0.0337,-0.033,-0.0323,-0.0321,-0.0287,-0.0406,-0.0407,-0.0407,-0.0407,-0.0407,0,0.0268,0.0295,0.0356,0.0427,0.0489,0.0531,0.0613,0.0661,0.0713,0.0736,0.0716,0.0534,0.0315,0.0121,-0.0161,-0.0351,-0.0327,-0.0396,-0.0311,-0.0303,-0.0297,-0.0289,-0.0368,-0.0369,-0.0369,-0.0369,0,0,0.0284,0.032,0.0346,0.0451,0.0522,0.0614,0.0662,0.0705,0.0726,0.071,0.0691,0.0615,0.0382,0.0187,-0.0058,-0.0203,-0.0205,-0.0232,-0.0249,-0.0113,-0.0103,-0.0256,-0.0238,0,0,0,0,0]}],[{"header":{"parameterUnit":"m.s-1","parameterCategory":2,"la1":30.2991,"la2":30.254,"lo1":-89.0895,"lo2":-89.0444,"dy":0.0017,"dx":0.0017,"nx":28,"ny":28,"refTime":"2025-08-25T03:00:00:Z","depth":"4","parameterNumber":2,"parameterNumberName":"U-component_of_CURRENTS"},"data":[0,0,0,0,0,0,0,0,0,0,0,0,0,0,0,0,0,0,0,0,0,0,0,0,0,0,0,0,0,0,0,0,0,0,0,0,0,0,0,0,0,0,0,0,0,0,0,0,0,0,0,0,0,0,0,0,0,0,0.0787,0.0787,0,0.0803,0.0804,0.0804,0.0835,0.0836,0.0837,0.0837,0.0818,0.0817,0.0816,0,0,0,0,0,0,0,0,0,0,0,0,0,0.0765,0.0765,0.0787,0.0787,0.0787,0.0803,0.0804,0.0804,0.0835,0.0836,0.0837,0.0838,0.0818,0.0817,0.0815,0,0,0,0,0,0,0,0,0,0,0,0,0,0.0777,0.0765,0.0787,0.0805,0.0807,0.0803,0.0804,0.0804,0.0835,0.0836,0.0837,0.0838,0.0819,0.0817,0.0815,0.0784,0,0,0.081,0.0809,0,0,0,0,0,0,0,0,0.0776,0.0777,0.0802,0.0804,0.0806,0.0819,0.0789,0.0796,0.0835,0.0824,0.0837,0.0839,0.0814,0.0813,0.0814,0.0783,0.0782,0.081,0.0809,0.0808,0.0807,0,0,0,0,0,0,0,0.0775,0.0777,0.0793,0.0803,0.0805,0.0807,0.081,0.079,0.0812,0.0825,0.0827,0.083,0.0815,0.0815,0.0813,0.0782,0.081,0.0808,0.0807,0.0807,0.0748,0.0748,0,0,0,0,0,0,0.0774,0.0776,0.0792,0.0793,0.0794,0.0807,0.081,0.0813,0.0813,0.0815,0.0829,0.0831,0.0818,0.0815,0.0813,0.0799,0.0808,0.0806,0.0805,0.0749,0.0748,0.0748,0,0,0,0,0,0,0.0774,0.0776,0.0791,0.0786,0.0788,0.0806,0.081,0.0813,0.0834,0.0817,0.0818,0.0849,0.0818,0.0815,0.0796,0.0798,0.0806,0.0804,0.0749,0.0749,0.0748,0.0758,0,0,0,0,0,0,0.0773,0.0775,0.0784,0.0785,0.0788,0.0795,0.0809,0.0813,0.0833,0.0837,0.0833,0.0832,0.0819,0.0799,0.0794,0.0796,0.0803,0.075,0.0749,0.0748,0.0758,0.0757,0.0757,0,0,0,0,0,0.0772,0.0776,0.0784,0.0787,0.0797,0.0795,0.0796,0.0812,0.0833,0.0836,0.0829,0.0833,0.079,0.0796,0.0792,0.0793,0.0751,0.0749,0.0748,0.0758,0.0757,0.0757,0,0,0,0,0,0,0.0769,0.0779,0.0789,0.0796,0.0799,0.0801,0.0812,0.0822,0.0821,0.0832,0.082,0.0816,0.08,0.0792,0.0799,0.0772,0.0773,0.0771,0.0782,0.0781,0.0781,0.0804,0.0801,0,0,0,0,0,0.0772,0.0779,0.0785,0.079,0.0799,0.081,0.0816,0.0825,0.0823,0.0827,0.082,0.081,0.0787,0.0783,0.0761,0.0745,0.0751,0.0744,0.0744,0.0743,0.0758,0.0751,0.0752,0.0744,0.0744,0.0744,0,0,0.0769,0.0778,0.0781,0.079,0.0801,0.0798,0.0817,0.083,0.0824,0.0821,0.0815,0.0805,0.078,0.0759,0.0753,0.0757,0.0749,0.0742,0.0742,0.0757,0.075,0.0751,0.0752,0.0743,0.0743,0.0743,0,0,0.0762,0.0782,0.0786,0.0791,0.0808,0.0805,0.0814,0.0823,0.083,0.0815,0.081,0.0807,0.0773,0.0762,0.0749,0.0733,0.0741,0.0726,0.0748,0.0741,0.0742,0.0743,0.0757,0.0759,0.0731,0.0731,0.0731,0,0.076,0.0771,0.0785,0.079,0.0794,0.081,0.0808,0.0808,0.0805,0.0811,0.0814,0.0789,0.0775,0.0754,0.0752,0.0735,0.0738,0.0753,0.0742,0.0743,0.0744,0.0758,0.076,0.0732,0.0732,0.0732,0.0732,0,0.0752,0.0769,0.0775,0.0782,0.0778,0.0787,0.0783,0.0789,0.08,0.0801,0.0797,0.078,0.0776,0.0764,0.0754,0.0753,0.0756,0.0738,0.0748,0.0745,0.076,0.0762,0.0732,0.0732,0.0732,0.0732,0,0,0.0729,0.0764,0.077,0.0778,0.0783,0.0776,0.0769,0.0769,0.0782,0.0781,0.0792,0.0767,0.079,0.0779,0.0771,0.0771,0.0783,0.0766,0.0765,0.079,0.0785,0.0774,0.0776,0.0761,0.0761,0.0761,0.0795,0,0.0725,0.0742,0.075,0.075,0.0756,0.0766,0.0754,0.0754,0.0763,0.0775,0.0782,0.0786,0.0783,0.0796,0.0793,0.0786,0.0789,0.0777,0.0776,0.0777,0.0775,0.0777,0.0762,0.0796,0.0797,0.0797,0.0798,0,0.0712,0.0729,0.074,0.075,0.0754,0.0755,0.0759,0.0749,0.0768,0.0779,0.0801,0.0811,0.0828,0.0818,0.0822,0.0816,0.0809,0.0801,0.0801,0.0793,0.077,0.0797,0.0802,0.0802,0.0801,0.0801,0.0801,0,0.0688,0.0714,0.0727,0.0733,0.0743,0.0759,0.0763,0.0772,0.0771,0.0805,0.0824,0.0836,0.086,0.0848,0.0851,0.0839,0.0851,0.0825,0.0809,0.0809,0.0806,0.0804,0.0822,0.0822,0.0822,0.0822,0.0822,0,0.0673,0.0684,0.0735,0.0744,0.0758,0.0763,0.0774,0.0789,0.0808,0.0817,0.0843,0.0862,0.0869,0.0879,0.0864,0.0856,0.0863,0.0825,0.0815,0.0808,0.0807,0.0808,0.0806,0.0823,0.0823,0.0822,0.0822,0,0.064,0.0678,0.0695,0.0737,0.0753,0.0764,0.0787,0.0784,0.0821,0.0841,0.0859,0.0894,0.0922,0.092,0.0914,0.0882,0.0866,0.0855,0.0875,0.0864,0.0828,0.0826,0.0847,0.0846,0.0846,0.0846,0.0846,0,0.062,0.0635,0.0691,0.0709,0.0742,0.0763,0.0765,0.0791,0.0792,0.0857,0.0864,0.0922,0.094,0.0927,0.0925,0.0906,0.0885,0.0874,0.0831,0.0841,0.083,0.0828,0.0826,0.0846,0.0846,0.0846,0.0846,0,0.0579,0.0617,0.0633,0.0675,0.0701,0.0715,0.0744,0.0743,0.0773,0.0814,0.0861,0.0888,0.0922,0.0923,0.0919,0.0895,0.0878,0.0872,0.0871,0.0831,0.0841,0.0829,0.0827,0.0846,0.0846,0.0846,0.0846,0,0.0541,0.0552,0.0586,0.0618,0.0648,0.0673,0.0691,0.0709,0.0719,0.0799,0.0818,0.0879,0.0927,0.0919,0.0911,0.0898,0.0879,0.0835,0.0836,0.0837,0.0815,0.0825,0.0826,0,0,0,0,0,0.0497,0.0507,0.0522,0.0548,0.0581,0.061,0.0663,0.0679,0.0723,0.0742,0.0782,0.0816,0.0847,0.0871,0.0854,0.0895,0.087,0.0871,0.0816,0.0843,0.0844,0.0818,0,0,0,0,0,0,0.0455,0.0477,0.0491,0.0487,0.0497,0.0523,0.0568,0.0612,0.0627,0.069,0.0706,0.0765,0.0793,0.0841,0.0834,0.084,0.0791,0.0905,0.0903,0.0843,0.0844,0.0844,0.0818,0,0,0,0,0]},{"header":{"parameterUnit":"m.s-1","parameterCategory":2,"la1":30.2991,"la2":30.254,"lo1":-89.0895,"lo2":-89.0444,"dy":0.0017,"dx":0.0017,"nx":28,"ny":28,"refTime":"2025-08-25T03:00:00:Z","depth":"4","parameterNumber":3,"parameterNumberName":"V-component_of_CURRENTS"},"data":[0,0,0,0,0,0,0,0,0,0,0,0,0,0,0,0,0,0,0,0,0,0,0,0,0,0,0,0,0,0,0,0,0,0,0,0,0,0,0,0,0,0,0,0,0,0,0,0,0,0,0,0,0,0,0,0,0,0,-0.0047,-0.0047,0,-0.0094,-0.0094,-0.0095,-0.0107,-0.0106,-0.0106,-0.0105,-0.0198,-0.0201,-0.0204,0,0,0,0,0,0,0,0,0,0,0,0,0,-0.0019,-0.0019,-0.0047,-0.0047,-0.0048,-0.0093,-0.0094,-0.0095,-0.0107,-0.0106,-0.0106,-0.0105,-0.0197,-0.02,-0.0204,0,0,0,0,0,0,0,0,0,0,0,0,0,-0.0046,-0.0019,-0.0047,-0.0058,-0.006,-0.0093,-0.0094,-0.0095,-0.0107,-0.0106,-0.0106,-0.0105,-0.0196,-0.02,-0.0204,-0.0242,0,0,-0.0217,-0.0219,0,0,0,0,0,0,0,0,-0.0044,-0.0047,-0.0056,-0.0058,-0.0059,-0.0093,-0.0118,-0.0146,-0.0107,-0.009,-0.0105,-0.0105,-0.0167,-0.0173,-0.0184,-0.0247,-0.0251,-0.0218,-0.022,-0.0222,-0.0223,0,0,0,0,0,0,0,-0.0042,-0.0045,-0.0066,-0.0057,-0.0059,-0.0079,-0.0082,-0.0124,-0.0133,-0.0091,-0.0092,-0.0096,-0.0168,-0.018,-0.0187,-0.0252,-0.0218,-0.0221,-0.0224,-0.0226,-0.04,-0.0402,0,0,0,0,0,0,-0.0032,-0.0043,-0.0065,-0.0068,-0.0049,-0.0079,-0.0083,-0.0083,-0.0131,-0.0137,-0.0096,-0.0096,-0.0173,-0.0182,-0.019,-0.0257,-0.0222,-0.0226,-0.0228,-0.0398,-0.04,-0.0402,0,0,0,0,0,0,-0.0032,-0.0034,-0.0063,-0.0056,-0.0061,-0.008,-0.0081,-0.0085,-0.0097,-0.0134,-0.0141,-0.0104,-0.0173,-0.0184,-0.0239,-0.026,-0.0228,-0.0232,-0.0395,-0.0398,-0.0401,-0.038,0,0,0,0,0,0,-0.0031,-0.0033,-0.0034,-0.0055,-0.0061,-0.0086,-0.0082,-0.0086,-0.0099,-0.01,-0.0144,-0.0152,-0.0173,-0.0233,-0.0243,-0.0265,-0.0235,-0.0393,-0.0397,-0.04,-0.0378,-0.0382,-0.0385,0,0,0,0,0,-0.0029,-0.0034,-0.0034,-0.0037,-0.006,-0.0086,-0.0092,-0.0104,-0.01,-0.0112,-0.0146,-0.015,-0.0265,-0.0238,-0.025,-0.0273,-0.0391,-0.0395,-0.04,-0.0376,-0.0381,-0.0385,0,0,0,0,0,0,-0.0026,-0.0036,-0.0036,-0.0044,-0.0064,-0.0088,-0.0099,-0.0106,-0.0141,-0.0142,-0.0173,-0.0185,-0.0243,-0.0269,-0.0238,-0.034,-0.0331,-0.0338,-0.0309,-0.0314,-0.0317,-0.0293,-0.0239,0,0,0,0,0,-0.0024,-0.0028,-0.0045,-0.0053,-0.006,-0.0079,-0.0092,-0.01,-0.0131,-0.0144,-0.0178,-0.0224,-0.0273,-0.0299,-0.0346,-0.0399,-0.0401,-0.0427,-0.0431,-0.0433,-0.0425,-0.0434,-0.0436,-0.0418,-0.0418,-0.0418,0,0,-0.0026,-0.0031,-0.0034,-0.0052,-0.0066,-0.009,-0.0086,-0.0105,-0.013,-0.0152,-0.0201,-0.0237,-0.0292,-0.035,-0.0379,-0.0372,-0.0446,-0.0439,-0.0441,-0.0431,-0.0439,-0.044,-0.0441,-0.0421,-0.042,-0.042,0,0,-0.0034,-0.0035,-0.0042,-0.0058,-0.0077,-0.0097,-0.0101,-0.0131,-0.0147,-0.0202,-0.0223,-0.0264,-0.035,-0.0378,-0.0408,-0.0464,-0.0465,-0.0493,-0.0487,-0.0496,-0.0496,-0.0496,-0.0514,-0.0516,-0.0493,-0.0493,-0.0493,0,-0.0036,-0.0043,-0.0052,-0.0066,-0.008,-0.01,-0.0118,-0.0147,-0.0193,-0.0206,-0.0221,-0.0321,-0.0362,-0.0414,-0.0438,-0.0467,-0.0475,-0.0458,-0.0495,-0.0495,-0.0496,-0.0514,-0.0516,-0.0493,-0.0493,-0.0493,-0.0493,0,-0.0052,-0.0058,-0.0065,-0.0089,-0.0111,-0.0129,-0.0164,-0.0189,-0.0216,-0.024,-0.0295,-0.0348,-0.0398,-0.0429,-0.0454,-0.0486,-0.0493,-0.0493,-0.0469,-0.0495,-0.0514,-0.0517,-0.0492,-0.0492,-0.0492,-0.0492,0,0,-0.0055,-0.0071,-0.0073,-0.0077,-0.0119,-0.0136,-0.018,-0.0216,-0.0228,-0.0286,-0.0307,-0.0392,-0.0398,-0.0432,-0.0462,-0.0475,-0.0494,-0.0486,-0.0487,-0.0477,-0.0519,-0.048,-0.0479,-0.0492,-0.0492,-0.0493,-0.0534,0,-0.0063,-0.0073,-0.0093,-0.0119,-0.0127,-0.0158,-0.0195,-0.023,-0.0265,-0.0295,-0.0337,-0.0379,-0.0408,-0.0426,-0.0445,-0.0484,-0.0498,-0.0483,-0.0518,-0.052,-0.0458,-0.0479,-0.0493,-0.0536,-0.0536,-0.0537,-0.0537,0,-0.0073,-0.0074,-0.0087,-0.0108,-0.0117,-0.0142,-0.0178,-0.0216,-0.026,-0.0284,-0.0319,-0.0352,-0.0397,-0.0409,-0.0469,-0.0458,-0.0487,-0.0511,-0.0513,-0.0479,-0.0484,-0.0506,-0.0541,-0.0541,-0.0541,-0.054,-0.054,0,-0.0055,-0.0074,-0.0077,-0.0086,-0.0119,-0.013,-0.0157,-0.0201,-0.0222,-0.0267,-0.0277,-0.0335,-0.036,-0.0405,-0.0461,-0.0468,-0.0512,-0.0527,-0.0518,-0.0517,-0.0545,-0.0545,-0.0553,-0.0553,-0.0553,-0.0553,-0.0553,0,-0.0052,-0.0057,-0.0058,-0.0059,-0.0063,-0.0101,-0.0119,-0.0149,-0.0186,-0.0195,-0.0259,-0.0268,-0.0357,-0.0395,-0.045,-0.0486,-0.0503,-0.0515,-0.0519,-0.0542,-0.054,-0.0548,-0.0546,-0.0554,-0.0554,-0.0554,-0.0553,0,-0.0043,-0.0042,-0.0042,-0.0052,-0.0052,-0.0058,-0.0088,-0.01,-0.0135,-0.0146,-0.0158,-0.0223,-0.0274,-0.0352,-0.0426,-0.046,-0.0506,-0.0511,-0.0531,-0.0536,-0.0516,-0.0513,-0.052,-0.0519,-0.0518,-0.0518,-0.0517,0,-0.0043,-0.0036,-0.0025,-0.0016,-0.0019,-0.0027,-0.0032,-0.0069,-0.0076,-0.0107,-0.0103,-0.0156,-0.02,-0.0274,-0.0367,-0.0465,-0.0471,-0.0502,-0.0512,-0.0506,-0.051,-0.0509,-0.0509,-0.0515,-0.0515,-0.0515,-0.0515,0,-0.0046,-0.0036,-0.0032,-0.0001,0.0008,0.0014,0.0012,0.0021,-0.0013,-0.0039,-0.0037,-0.0091,-0.0144,-0.0239,-0.031,-0.0381,-0.049,-0.0492,-0.0495,-0.0505,-0.0499,-0.0505,-0.0505,-0.0511,-0.0512,-0.0512,-0.0512,0,-0.0054,-0.0043,-0.0025,0.0001,0.0018,0.0051,0.005,0.0057,0.005,0.0029,0.0036,-0.0037,-0.0091,-0.0193,-0.0258,-0.0327,-0.0353,-0.0376,-0.0386,-0.0391,-0.034,-0.0313,-0.0265,0,0,0,0,0,-0.0059,-0.0042,-0.0026,0.0006,0.0027,0.0045,0.0071,0.007,0.0066,0.0084,0.0062,0.0019,-0.0079,-0.0136,-0.0195,-0.0261,-0.038,-0.0333,-0.0414,-0.0492,-0.0496,-0.0454,0,0,0,0,0,0,-0.0066,-0.0048,-0.003,0.0006,0.0031,0.0058,0.0085,0.0092,0.0102,0.0092,0.0042,0.0006,-0.0097,-0.0046,-0.0197,-0.0222,-0.0279,-0.039,-0.0391,-0.049,-0.0494,-0.0497,-0.0455,0,0,0,0,0]}]]